| time (UTC) | temp F | wind direction | speed knots | gust knots | rain 1hr in | rain 24hr in | rain mn in | humidity % | barometer mb |
| 20260508231347 | 56 | 75 | 0.0 | 1.7 | 0.02 | 0.00 | 0.00 | 94 | 1007.6 |
| 20260508230843 | 56 | 263 | 1.7 | 3.5 | 0.00 | 0.00 | 0.00 | 93 | 1007.5 |
| 20260508230340 | 56 | 278 | 0.9 | 3.5 | 0.00 | 0.00 | 0.00 | 93 | 1007.5 |
| 20260508225838 | 56 | 315 | 3.5 | 6.1 | 0.00 | 0.00 | 0.00 | 93 | 1007.5 |
| 20260508225334 | 56 | 314 | 5.2 | 6.1 | 0.00 | 0.00 | 0.00 | 92 | 1007.4 |
| 20260508224832 | 56 | 319 | 4.3 | 7.8 | 0.00 | 0.00 | 0.00 | 92 | 1007.3 |
| 20260508224329 | 56 | 324 | 4.3 | 9.6 | 0.00 | 0.00 | 0.00 | 91 | 1007.5 |
| 20260508223827 | 57 | 328 | 8.7 | 10.4 | 0.00 | 0.00 | 0.00 | 91 | 1007.5 |
| 20260508223324 | 57 | 330 | 6.1 | 9.6 | 0.00 | 0.00 | 0.00 | 90 | 1007.3 |
| 20260508222822 | 57 | 31 | 4.3 | 9.6 | 0.00 | 0.00 | 0.00 | 91 | 1007.6 |
| 20260508222318 | 57 | 314 | 5.2 | 9.6 | 0.00 | 0.00 | 0.00 | 91 | 1007.5 |
| 20260508221815 | 57 | 321 | 4.3 | 6.1 | 0.00 | 0.00 | 0.00 | 91 | 1007.6 |
| 20260508221310 | 57 | 324 | 3.5 | 7.8 | 0.00 | 0.00 | 0.00 | 91 | 1007.6 |
| 20260508220807 | 58 | 332 | 7.0 | 7.8 | 0.00 | 0.00 | 0.00 | 91 | 1007.6 |
| 20260508220304 | 58 | 324 | 4.3 | 7.8 | 0.00 | 0.00 | 0.00 | 89 | 1007.6 |
| 20260508215800 | 58 | 329 | 3.5 | 6.1 | 0.00 | 0.00 | 0.00 | 88 | 1007.5 |
| 20260508215257 | 58 | 326 | 2.6 | 7.8 | 0.00 | 0.00 | 0.00 | 87 | 1007.5 |
| 20260508214754 | 59 | 324 | 7.8 | 8.7 | 0.00 | 0.00 | 0.00 | 85 | 1007.3 |
| 20260508214251 | 60 | 303 | 4.3 | 6.1 | 0.00 | 0.00 | 0.00 | 75 | 1007.3 |
| 20260508213747 | 60 | 293 | 3.5 | 8.7 | 0.00 | 0.00 | 0.00 | 75 | 1007.3 |
| 20260508213244 | 60 | 220 | 4.3 | 9.6 | 0.00 | 0.00 | 0.00 | 78 | 1007.5 |
| 20260508212741 | 60 | 279 | 7.0 | 17.4 | 0.00 | 0.00 | 0.00 | 75 | 1007.5 |
| 20260508212237 | 60 | 316 | 3.5 | 14.8 | 0.00 | 0.00 | 0.00 | 76 | 1007.7 |
| 20260508211733 | 59 | 310 | 2.6 | 6.1 | 0.00 | 0.00 | 0.00 | 81 | 1007.6 |
| 20260508211229 | 59 | 251 | 6.1 | 13.9 | 0.00 | 0.00 | 0.00 | 79 | 1007.6 |
| 20260508210727 | 61 | 243 | 3.5 | 9.6 | 0.00 | 0.00 | 0.00 | 71 | 1007.6 |
| 20260508210223 | 61 | 229 | 4.3 | 9.6 | 0.00 | 0.00 | 0.00 | 69 | 1007.3 |
| 20260508205720 | 62 | 248 | 7.0 | 18.2 | 0.00 | 0.00 | 0.00 | 66 | 1007.4 |
| 20260508205217 | 62 | 207 | 6.1 | 9.6 | 0.00 | 0.00 | 0.00 | 66 | 1007.3 |
| 20260508204713 | 62 | 230 | 2.6 | 9.6 | 0.00 | 0.00 | 0.00 | 67 | 1007.2 |
| 20260508204209 | 62 | 245 | 1.7 | 4.3 | 0.00 | 0.00 | 0.00 | 69 | 1007.3 |
| 20260508203706 | 62 | 305 | 5.2 | 17.4 | 0.00 | 0.00 | 0.00 | 63 | 1007.5 |
| 20260508203202 | 63 | 276 | 9.6 | 20.9 | 0.00 | 0.00 | 0.00 | 65 | 1007.3 |
| 20260508202658 | 64 | 232 | 4.3 | 17.4 | 0.00 | 0.00 | 0.00 | 60 | 1007.5 |
| 20260508202155 | 64 | 218 | 9.6 | 20.0 | 0.00 | 0.00 | 0.00 | 58 | 1007.2 |
| 20260508201652 | 64 | 211 | 10.4 | 21.7 | 0.00 | 0.00 | 0.00 | 60 | 1007.4 |
| 20260508201149 | 64 | 234 | 13.0 | 22.6 | 0.00 | 0.00 | 0.00 | 60 | 1007.3 |
| 20260508200646 | 65 | 164 | 2.6 | 11.3 | 0.00 | 0.00 | 0.00 | 60 | 1007.3 |
| 20260508200142 | 65 | 216 | 10.4 | 14.8 | 0.00 | 0.00 | 0.00 | 61 | 1007.3 |
| 20260508195638 | 65 | 216 | 25.2 | 29.5 | 0.00 | 0.00 | 0.00 | 56 | 1007.3 |
| 20260508195135 | 66 | 220 | 9.6 | 24.3 | 0.00 | 0.00 | 0.00 | 57 | 1007.3 |
| 20260508194631 | 66 | 221 | 13.9 | 24.3 | 0.00 | 0.00 | 0.00 | 56 | 1007.0 |
| 20260508194128 | 66 | 230 | 15.6 | 26.9 | 0.00 | 0.00 | 0.00 | 57 | 1007.1 |
| 20260508193625 | 67 | 211 | 14.8 | 22.6 | 0.00 | 0.00 | 0.00 | 56 | 1007.4 |
| 20260508193122 | 66 | 216 | 18.2 | 23.5 | 0.00 | 0.00 | 0.00 | 57 | 1007.4 |
| 20260508192618 | 66 | 220 | 11.3 | 20.9 | 0.00 | 0.00 | 0.00 | 58 | 1007.7 |
| 20260508192116 | 66 | 207 | 17.4 | 25.2 | 0.00 | 0.00 | 0.00 | 55 | 1007.6 |
| 20260508191613 | 67 | 211 | 20.9 | 24.3 | 0.00 | 0.00 | 0.00 | 55 | 1007.7 |
| 20260508191109 | 65 | 208 | 8.7 | 19.1 | 0.00 | 0.00 | 0.00 | 59 | 1007.9 |
| 20260508190607 | 65 | 212 | 10.4 | 20.0 | 0.00 | 0.00 | 0.00 | 58 | 1008.0 |
| 20260508190103 | 64 | 209 | 13.0 | 19.1 | 0.00 | 0.00 | 0.00 | 58 | 1007.9 |
| 20260508185600 | 65 | 236 | 5.2 | 20.9 | 0.00 | 0.00 | 0.00 | 58 | 1008.2 |
| 20260508185057 | 65 | 209 | 14.8 | 17.4 | 0.00 | 0.00 | 0.00 | 59 | 1008.0 |
| 20260508184555 | 64 | 224 | 13.9 | 16.5 | 0.00 | 0.00 | 0.00 | 60 | 1008.4 |
| 20260508184051 | 65 | 215 | 4.3 | 25.2 | 0.00 | 0.00 | 0.00 | 57 | 1008.5 |
| 20260508183542 | 65 | 221 | 5.2 | 18.2 | 0.00 | 0.00 | 0.00 | 57 | 1008.4 |
| 20260508183038 | 65 | 216 | 11.3 | 24.3 | 0.00 | 0.00 | 0.00 | 57 | 1008.2 |
| 20260508182534 | 66 | 209 | 12.2 | 12.2 | 0.00 | 0.00 | 0.00 | 58 | 1008.3 |
| 20260508182025 | 67 | 220 | 7.0 | 15.6 | 0.00 | 0.00 | 0.00 | 60 | 1008.2 |
| 20260508181520 | 68 | 283 | 5.2 | 12.2 | 0.00 | 0.00 | 0.00 | 56 | 1008.2 |
| 20260508181019 | 66 | 211 | 8.7 | 21.7 | 0.00 | 0.00 | 0.00 | 57 | 1008.2 |
| 20260508180515 | 65 | 221 | 7.8 | 17.4 | 0.00 | 0.00 | 0.00 | 57 | 1008.3 |
| 20260508180011 | 65 | 211 | 4.3 | 13.0 | 0.00 | 0.00 | 0.00 | 58 | 1008.5 |
| 20260508175508 | 65 | 223 | 6.1 | 15.6 | 0.00 | 0.00 | 0.00 | 59 | 1008.4 |
| 20260508175005 | 64 | 218 | 13.0 | 22.6 | 0.00 | 0.00 | 0.00 | 58 | 1008.4 |
| 20260508174503 | 65 | 220 | 7.8 | 15.6 | 0.00 | 0.00 | 0.00 | 60 | 1008.8 |
| 20260508174000 | 65 | 220 | 7.8 | 17.4 | 0.00 | 0.00 | 0.00 | 57 | 1008.8 |
| 20260508173457 | 65 | 217 | 5.2 | 13.0 | 0.00 | 0.00 | 0.00 | 58 | 1009.0 |
| 20260508172952 | 66 | 247 | 11.3 | 13.9 | 0.00 | 0.00 | 0.00 | 58 | 1009.1 |
| 20260508172449 | 66 | 208 | 7.0 | 13.9 | 0.00 | 0.00 | 0.00 | 61 | 1009.1 |
| 20260508171946 | 66 | 215 | 9.6 | 19.1 | 0.00 | 0.00 | 0.00 | 62 | 1009.1 |
| 20260508171443 | 66 | 200 | 11.3 | 15.6 | 0.00 | 0.00 | 0.00 | 61 | 1009.4 |
| 20260508170939 | 65 | 184 | 2.6 | 14.8 | 0.00 | 0.00 | 0.00 | 64 | 1009.6 |
| 20260508170437 | 64 | 203 | 4.3 | 16.5 | 0.00 | 0.00 | 0.00 | 65 | 1009.4 |
| 20260508165933 | 64 | 226 | 7.8 | 13.9 | 0.00 | 0.00 | 0.00 | 59 | 1009.7 |
| 20260508165432 | 64 | 245 | 2.6 | 7.0 | 0.00 | 0.00 | 0.00 | 61 | 1009.6 |
| 20260508164927 | 62 | 211 | 7.0 | 13.0 | 0.00 | 0.00 | 0.00 | 60 | 1010.2 |
| 20260508164424 | 63 | 278 | 8.7 | 13.9 | 0.00 | 0.00 | 0.00 | 64 | 1010.4 |
| 20260508163922 | 64 | 218 | 9.6 | 13.9 | 0.00 | 0.00 | 0.00 | 60 | 1010.5 |
| 20260508163419 | 62 | 299 | 1.7 | 8.7 | 0.00 | 0.00 | 0.00 | 61 | 1010.6 |
| 20260508162914 | 62 | 239 | 6.1 | 9.6 | 0.00 | 0.00 | 0.00 | 64 | 1010.5 |
| 20260508162412 | 62 | 219 | 6.1 | 10.4 | 0.00 | 0.00 | 0.00 | 62 | 1010.7 |
| 20260508161909 | 62 | 214 | 3.5 | 15.6 | 0.00 | 0.00 | 0.00 | 62 | 1010.9 |
| 20260508161406 | 62 | 150 | 1.7 | 12.2 | 0.00 | 0.00 | 0.00 | 63 | 1010.7 |
| 20260508160903 | 61 | 241 | 2.6 | 17.4 | 0.00 | 0.00 | 0.00 | 65 | 1011.0 |
| 20260508160402 | 61 | 306 | 1.7 | 13.9 | 0.00 | 0.00 | 0.00 | 64 | 1011.0 |
| 20260508155857 | 60 | 233 | 7.0 | 12.2 | 0.00 | 0.00 | 0.00 | 65 | 1010.8 |
| 20260508155355 | 60 | 225 | 6.1 | 18.2 | 0.00 | 0.00 | 0.00 | 68 | 1011.1 |
| 20260508154852 | 60 | 268 | 5.2 | 10.4 | 0.00 | 0.00 | 0.00 | 65 | 1011.2 |
| 20260508154349 | 59 | 205 | 7.0 | 8.7 | 0.00 | 0.00 | 0.00 | 68 | 1011.1 |
| 20260508153846 | 58 | 219 | 5.2 | 11.3 | 0.00 | 0.00 | 0.00 | 68 | 1011.0 |
| 20260508153343 | 57 | 217 | 11.3 | 13.0 | 0.00 | 0.00 | 0.00 | 68 | 1010.9 |
| 20260508152839 | 57 | 225 | 7.0 | 10.4 | 0.00 | 0.00 | 0.00 | 71 | 1011.3 |
| 20260508152336 | 57 | 206 | 7.8 | 10.4 | 0.00 | 0.00 | 0.00 | 70 | 1011.2 |
| 20260508151832 | 56 | 214 | 4.3 | 13.0 | 0.00 | 0.00 | 0.00 | 70 | 1011.1 |
| 20260508151330 | 56 | 224 | 3.5 | 16.5 | 0.00 | 0.00 | 0.00 | 68 | 1011.0 |
| 20260508150826 | 57 | 205 | 7.0 | 9.6 | 0.00 | 0.00 | 0.00 | 68 | 1011.3 |
| 20260508150323 | 56 | 217 | 5.2 | 14.8 | 0.00 | 0.00 | 0.00 | 69 | 1011.4 |
| 20260508145819 | 57 | 215 | 11.3 | 20.9 | 0.00 | 0.00 | 0.00 | 68 | 1011.5 |
| 20260508145315 | 56 | 215 | 7.8 | 13.0 | 0.00 | 0.00 | 0.00 | 70 | 1011.4 |
| 20260508144812 | 55 | 227 | 7.8 | 16.5 | 0.00 | 0.00 | 0.00 | 71 | 1011.1 |
| 20260508144310 | 55 | 214 | 13.0 | 13.0 | 0.00 | 0.00 | 0.00 | 72 | 1011.3 |
| 20260508143807 | 55 | 211 | 10.4 | 14.8 | 0.00 | 0.00 | 0.00 | 71 | 1011.6 |
| 20260508143304 | 54 | 215 | 4.3 | 13.0 | 0.00 | 0.00 | 0.00 | 72 | 1011.2 |
| 20260508142800 | 53 | 214 | 8.7 | 10.4 | 0.00 | 0.00 | 0.00 | 74 | 1011.2 |
| 20260508142257 | 53 | 212 | 3.5 | 8.7 | 0.00 | 0.00 | 0.00 | 75 | 1011.1 |
| 20260508141754 | 53 | 225 | 5.2 | 12.2 | 0.00 | 0.00 | 0.00 | 75 | 1011.0 |
| 20260508141251 | 52 | 207 | 11.3 | 11.3 | 0.00 | 0.00 | 0.00 | 75 | 1011.3 |
| 20260508140748 | 52 | 200 | 7.8 | 9.6 | 0.00 | 0.00 | 0.00 | 77 | 1011.1 |
| 20260508140245 | 52 | 213 | 6.1 | 11.3 | 0.00 | 0.00 | 0.00 | 76 | 1011.1 |
| 20260508135741 | 52 | 180 | 3.5 | 8.7 | 0.00 | 0.00 | 0.00 | 74 | 1011.3 |
| 20260508135237 | 52 | 209 | 11.3 | 13.0 | 0.00 | 0.00 | 0.00 | 73 | 1011.2 |
| 20260508134733 | 51 | 219 | 7.8 | 13.0 | 0.00 | 0.00 | 0.00 | 73 | 1011.0 |
| 20260508134230 | 51 | 208 | 9.6 | 9.6 | 0.00 | 0.00 | 0.00 | 75 | 1011.1 |
| 20260508133727 | 51 | 217 | 5.2 | 10.4 | 0.00 | 0.00 | 0.00 | 74 | 1011.2 |
| 20260508133225 | 51 | 195 | 7.8 | 11.3 | 0.00 | 0.00 | 0.00 | 77 | 1011.3 |
| 20260508132722 | 51 | 217 | 5.2 | 11.3 | 0.00 | 0.00 | 0.00 | 76 | 1011.2 |
| 20260508132220 | 51 | 215 | 3.5 | 9.6 | 0.00 | 0.00 | 0.00 | 76 | 1011.2 |
| 20260508131715 | 50 | 199 | 3.5 | 10.4 | 0.00 | 0.00 | 0.00 | 76 | 1011.4 |
| 20260508131212 | 50 | 202 | 2.6 | 7.0 | 0.00 | 0.00 | 0.00 | 76 | 1011.1 |
| 20260508130708 | 50 | 204 | 4.3 | 8.7 | 0.00 | 0.00 | 0.00 | 76 | 1011.3 |
| 20260508130205 | 50 | 204 | 1.7 | 9.6 | 0.00 | 0.00 | 0.00 | 76 | 1011.3 |
| 20260508125700 | 50 | 194 | 3.5 | 7.8 | 0.00 | 0.00 | 0.00 | 76 | 1011.4 |
| 20260508125157 | 50 | 209 | 6.1 | 10.4 | 0.00 | 0.00 | 0.00 | 76 | 1011.2 |
| 20260508124655 | 50 | 222 | 6.1 | 9.6 | 0.00 | 0.00 | 0.00 | 77 | 1011.2 |
| 20260508124152 | 50 | 200 | 5.2 | 8.7 | 0.00 | 0.00 | 0.00 | 76 | 1011.2 |
| 20260508123651 | 50 | 309 | 1.7 | 7.8 | 0.00 | 0.00 | 0.00 | 77 | 1011.3 |
| 20260508123149 | 50 | 243 | 4.3 | 13.9 | 0.00 | 0.00 | 0.00 | 78 | 1011.3 |
| 20260508122644 | 50 | 196 | 3.5 | 10.4 | 0.00 | 0.00 | 0.00 | 78 | 1011.1 |
| 20260508122141 | 49 | 206 | 3.5 | 7.0 | 0.00 | 0.00 | 0.00 | 78 | 1011.2 |
| 20260508121639 | 49 | 198 | 2.6 | 11.3 | 0.00 | 0.00 | 0.00 | 78 | 1011.1 |
| 20260508121137 | 49 | 197 | 3.5 | 6.1 | 0.00 | 0.00 | 0.00 | 78 | 1011.2 |
| 20260508120634 | 49 | 210 | 7.0 | 10.4 | 0.00 | 0.00 | 0.00 | 78 | 1011.1 |
| 20260508120133 | 49 | 216 | 7.0 | 9.6 | 0.00 | 0.00 | 0.00 | 78 | 1010.9 |
| 20260508115630 | 48 | 215 | 7.0 | 9.6 | 0.00 | 0.00 | 0.00 | 79 | 1010.9 |
| 20260508115126 | 48 | 213 | 7.0 | 10.4 | 0.00 | 0.00 | 0.00 | 79 | 1011.0 |
| 20260508114624 | 48 | 197 | 5.2 | 9.6 | 0.00 | 0.00 | 0.00 | 79 | 1011.0 |
| 20260508114119 | 48 | 197 | 4.3 | 10.4 | 0.00 | 0.00 | 0.00 | 79 | 1011.1 |
| 20260508113617 | 48 | 198 | 3.5 | 10.4 | 0.00 | 0.00 | 0.00 | 79 | 1010.9 |
| 20260508113115 | 48 | 211 | 2.6 | 7.8 | 0.00 | 0.00 | 0.00 | 80 | 1010.7 |
| 20260508112611 | 47 | 195 | 4.3 | 7.0 | 0.00 | 0.00 | 0.00 | 80 | 1011.0 |
| 20260508112108 | 47 | 210 | 6.1 | 7.0 | 0.00 | 0.00 | 0.00 | 80 | 1010.7 |
| 20260508111605 | 47 | 212 | 4.3 | 7.0 | 0.00 | 0.00 | 0.00 | 79 | 1010.7 |
| 20260508111102 | 47 | 195 | 1.7 | 5.2 | 0.00 | 0.00 | 0.00 | 81 | 1010.8 |
| 20260508110600 | 47 | 205 | 3.5 | 6.1 | 0.00 | 0.00 | 0.00 | 80 | 1010.8 |
| 20260508110056 | 47 | 216 | 5.2 | 9.6 | 0.00 | 0.00 | 0.00 | 78 | 1010.8 |
| 20260508105551 | 47 | 201 | 4.3 | 7.8 | 0.00 | 0.00 | 0.00 | 80 | 1010.8 |
| 20260508105048 | 47 | 201 | 3.5 | 6.1 | 0.00 | 0.00 | 0.00 | 80 | 1010.6 |
| 20260508104546 | 47 | 204 | 6.1 | 8.7 | 0.00 | 0.00 | 0.00 | 79 | 1010.7 |
| 20260508104042 | 47 | 206 | 2.6 | 7.8 | 0.00 | 0.00 | 0.00 | 80 | 1010.7 |
| 20260508103539 | 46 | 206 | 6.1 | 7.8 | 0.00 | 0.00 | 0.00 | 80 | 1010.9 |
| 20260508103037 | 46 | 199 | 4.3 | 5.2 | 0.00 | 0.00 | 0.00 | 80 | 1010.6 |
| 20260508102534 | 46 | 189 | 2.6 | 6.1 | 0.00 | 0.00 | 0.00 | 80 | 1010.5 |
| 20260508102032 | 46 | 200 | 3.5 | 6.1 | 0.00 | 0.00 | 0.00 | 80 | 1010.5 |
| 20260508101529 | 46 | 183 | 1.7 | 5.2 | 0.00 | 0.00 | 0.00 | 80 | 1010.6 |
| 20260508101026 | 46 | 206 | 3.5 | 6.1 | 0.00 | 0.00 | 0.00 | 80 | 1010.7 |
| 20260508100524 | 45 | 200 | 2.6 | 5.2 | 0.00 | 0.00 | 0.00 | 81 | 1010.5 |
| 20260508100021 | 46 | 173 | 1.7 | 5.2 | 0.00 | 0.00 | 0.00 | 80 | 1010.5 |
| 20260508095518 | 46 | 197 | 2.6 | 7.0 | 0.00 | 0.00 | 0.00 | 79 | 1010.3 |
| 20260508095015 | 46 | 176 | 2.6 | 4.3 | 0.00 | 0.00 | 0.00 | 78 | 1010.3 |
| 20260508094512 | 47 | 185 | 2.6 | 3.5 | 0.00 | 0.00 | 0.00 | 77 | 1010.6 |
| 20260508094009 | 46 | 202 | 3.5 | 6.1 | 0.00 | 0.00 | 0.00 | 78 | 1010.5 |
| 20260508093506 | 47 | 203 | 3.5 | 9.6 | 0.00 | 0.00 | 0.00 | 77 | 1010.4 |
| 20260508093004 | 47 | 213 | 4.3 | 7.8 | 0.00 | 0.00 | 0.00 | 78 | 1010.6 |
| 20260508092500 | 47 | 208 | 2.6 | 7.8 | 0.00 | 0.00 | 0.00 | 77 | 1010.5 |
| 20260508092000 | 46 | 217 | 5.2 | 8.7 | 0.00 | 0.00 | 0.00 | 79 | 1010.5 |
| 20260508091456 | 46 | 219 | 7.0 | 10.4 | 0.00 | 0.00 | 0.00 | 79 | 1010.6 |
| 20260508090953 | 46 | 202 | 4.3 | 7.8 | 0.00 | 0.00 | 0.00 | 78 | 1010.7 |
| 20260508090452 | 46 | 196 | 4.3 | 7.0 | 0.00 | 0.00 | 0.00 | 79 | 1010.6 |
| 20260508085947 | 46 | 204 | 5.2 | 8.7 | 0.00 | 0.00 | 0.00 | 79 | 1010.5 |
| 20260508085444 | 46 | 214 | 4.3 | 7.0 | 0.00 | 0.00 | 0.00 | 79 | 1010.6 |
| 20260508084941 | 46 | 221 | 4.3 | 7.8 | 0.00 | 0.00 | 0.00 | 79 | 1010.8 |
| 20260508084437 | 46 | 189 | 3.5 | 7.8 | 0.00 | 0.00 | 0.00 | 79 | 1010.6 |
| 20260508083936 | 46 | 175 | 2.6 | 6.1 | 0.00 | 0.00 | 0.00 | 80 | 1010.6 |
| 20260508083432 | 46 | 216 | 4.3 | 6.1 | 0.00 | 0.00 | 0.00 | 78 | 1010.6 |
| 20260508082932 | 47 | 205 | 3.5 | 6.1 | 0.00 | 0.00 | 0.00 | 77 | 1010.4 |
| 20260508082430 | 47 | 194 | 3.5 | 7.0 | 0.00 | 0.00 | 0.00 | 78 | 1010.7 |
| 20260508081928 | 47 | 203 | 5.2 | 10.4 | 0.00 | 0.00 | 0.00 | 76 | 1010.5 |
| 20260508081424 | 47 | 208 | 3.5 | 7.8 | 0.00 | 0.00 | 0.00 | 76 | 1010.5 |
| 20260508080920 | 47 | 208 | 7.0 | 7.0 | 0.00 | 0.00 | 0.00 | 78 | 1010.8 |
| 20260508080419 | 47 | 196 | 3.5 | 6.1 | 0.00 | 0.00 | 0.00 | 76 | 1010.7 |
| 20260508075915 | 48 | 213 | 5.2 | 6.1 | 0.00 | 0.00 | 0.00 | 75 | 1010.7 |
| 20260508075412 | 47 | 195 | 3.5 | 6.1 | 0.00 | 0.00 | 0.00 | 76 | 1010.8 |
| 20260508074910 | 47 | 152 | 1.7 | 5.2 | 0.00 | 0.00 | 0.00 | 76 | 1010.6 |
| 20260508074407 | 47 | 201 | 4.3 | 6.1 | 0.00 | 0.00 | 0.00 | 77 | 1010.7 |
| 20260508073904 | 47 | 216 | 5.2 | 7.0 | 0.00 | 0.00 | 0.00 | 77 | 1010.8 |
| 20260508073402 | 47 | 199 | 3.5 | 8.7 | 0.00 | 0.00 | 0.00 | 78 | 1010.9 |
| 20260508072858 | 47 | 197 | 3.5 | 4.3 | 0.00 | 0.00 | 0.00 | 78 | 1010.7 |
| 20260508072354 | 47 | 208 | 3.5 | 5.2 | 0.00 | 0.00 | 0.00 | 79 | 1010.7 |
| 20260508071852 | 47 | 175 | 0.9 | 6.1 | 0.00 | 0.00 | 0.00 | 78 | 1011.0 |
| 20260508071350 | 47 | 162 | 1.7 | 5.2 | 0.00 | 0.00 | 0.00 | 78 | 1011.0 |
| 20260508070848 | 48 | 201 | 4.3 | 7.0 | 0.00 | 0.00 | 0.00 | 76 | 1010.9 |
| 20260508070345 | 48 | 198 | 3.5 | 6.1 | 0.00 | 0.00 | 0.00 | 76 | 1010.9 |
| 20260508065843 | 48 | 198 | 3.5 | 7.0 | 0.00 | 0.00 | 0.00 | 76 | 1011.0 |
| 20260508065341 | 48 | 207 | 2.6 | 5.2 | 0.00 | 0.00 | 0.00 | 76 | 1011.0 |
| 20260508064838 | 48 | 186 | 3.5 | 7.0 | 0.00 | 0.00 | 0.00 | 76 | 1011.2 |
| 20260508064330 | 48 | 136 | 0.9 | 3.5 | 0.00 | 0.00 | 0.00 | 77 | 1011.0 |
| 20260508063828 | 48 | 170 | 0.0 | 2.6 | 0.00 | 0.00 | 0.00 | 77 | 1010.9 |
| 20260508063325 | 48 | 174 | 1.7 | 5.2 | 0.00 | 0.00 | 0.00 | 76 | 1011.0 |
| 20260508062822 | 48 | 178 | 2.6 | 2.6 | 0.00 | 0.00 | 0.00 | 77 | 1011.2 |
| 20260508062320 | 49 | 192 | 1.7 | 6.1 | 0.00 | 0.00 | 0.00 | 75 | 1011.1 |
| 20260508061816 | 49 | 196 | 2.6 | 5.2 | 0.00 | 0.00 | 0.00 | 75 | 1011.2 |
| 20260508061313 | 49 | 196 | 1.7 | 2.6 | 0.00 | 0.00 | 0.00 | 75 | 1011.4 |
| 20260508060810 | 49 | 205 | 3.5 | 4.3 | 0.00 | 0.00 | 0.00 | 74 | 1011.4 |
| 20260508060308 | 49 | 206 | 0.9 | 6.1 | 0.00 | 0.00 | 0.00 | 73 | 1011.2 |
| 20260508055803 | 49 | 213 | 4.3 | 4.3 | 0.00 | 0.00 | 0.00 | 74 | 1011.0 |
| 20260508055301 | 50 | 208 | 3.5 | 5.2 | 0.00 | 0.00 | 0.00 | 73 | 1011.3 |
| 20260508054756 | 50 | 217 | 0.9 | 3.5 | 0.00 | 0.00 | 0.00 | 73 | 1011.3 |
| 20260508054255 | 50 | 222 | 4.3 | 5.2 | 0.00 | 0.00 | 0.00 | 71 | 1011.3 |
| 20260508053751 | 50 | 201 | 4.3 | 7.0 | 0.00 | 0.00 | 0.00 | 70 | 1011.1 |
| 20260508053249 | 51 | 197 | 2.6 | 7.8 | 0.00 | 0.00 | 0.00 | 71 | 1011.0 |
| 20260508052746 | 51 | 219 | 3.5 | 7.0 | 0.00 | 0.00 | 0.00 | 72 | 1011.3 |
| 20260508052243 | 51 | 204 | 5.2 | 12.2 | 0.00 | 0.00 | 0.00 | 72 | 1011.1 |
| 20260508051739 | 51 | 212 | 7.8 | 10.4 | 0.00 | 0.00 | 0.00 | 72 | 1011.3 |
| 20260508051235 | 51 | 213 | 6.1 | 12.2 | 0.00 | 0.00 | 0.00 | 71 | 1011.3 |
| 20260508050731 | 52 | 210 | 1.7 | 10.4 | 0.00 | 0.00 | 0.00 | 69 | 1011.4 |
| 20260508050228 | 53 | 239 | 4.3 | 20.0 | 0.00 | 0.00 | 0.00 | 67 | 1011.3 |
| 20260508045724 | 52 | 221 | 9.6 | 19.1 | 0.00 | 0.00 | 0.00 | 70 | 1011.1 |
| 20260508045222 | 52 | 220 | 11.3 | 19.1 | 0.00 | 0.00 | 0.00 | 68 | 1011.2 |
| 20260508044719 | 51 | 216 | 2.6 | 26.1 | 0.00 | 0.00 | 0.00 | 73 | 1011.8 |
| 20260508044216 | 50 | 325 | 15.6 | 20.9 | 0.00 | 0.00 | 0.00 | 80 | 1012.0 |
| 20260508043712 | 51 | 149 | 0.9 | 7.0 | 0.00 | 0.00 | 0.00 | 74 | 1011.4 |
| 20260508043210 | 51 | 192 | 1.7 | 8.7 | 0.00 | 0.00 | 0.00 | 75 | 1010.9 |
| 20260508042706 | 50 | 217 | 2.6 | 5.2 | 0.00 | 0.00 | 0.00 | 76 | 1011.0 |
| 20260508042204 | 50 | 199 | 7.8 | 7.8 | 0.00 | 0.00 | 0.00 | 76 | 1010.9 |
| 20260508041700 | 50 | 159 | 1.7 | 7.8 | 0.00 | 0.00 | 0.00 | 75 | 1010.9 |
| 20260508041157 | 50 | 165 | 0.9 | 5.2 | 0.00 | 0.00 | 0.00 | 77 | 1011.2 |
| 20260508040653 | 50 | 129 | 0.0 | 3.5 | 0.00 | 0.00 | 0.00 | 77 | 1011.0 |
| 20260508040151 | 50 | 149 | 4.3 | 6.1 | 0.00 | 0.00 | 0.00 | 77 | 1010.7 |
| 20260508035648 | 50 | 133 | 2.6 | 5.2 | 0.00 | 0.00 | 0.00 | 77 | 1010.9 |
| 20260508035145 | 50 | 115 | 0.9 | 4.3 | 0.00 | 0.00 | 0.00 | 77 | 1010.9 |
| 20260508034641 | 50 | 116 | 2.6 | 4.3 | 0.00 | 0.00 | 0.00 | 78 | 1011.0 |
| 20260508034138 | 49 | 56 | 0.9 | 2.6 | 0.00 | 0.00 | 0.00 | 79 | 1011.2 |
| 20260508033636 | 50 | 157 | 1.7 | 4.3 | 0.00 | 0.00 | 0.00 | 78 | 1011.1 |
| 20260508033134 | 49 | 101 | 0.9 | 5.2 | 0.00 | 0.00 | 0.00 | 78 | 1011.2 |
| 20260508032630 | 49 | 163 | 0.9 | 3.5 | 0.00 | 0.00 | 0.00 | 78 | 1011.1 |
| 20260508032128 | 49 | 152 | 1.7 | 2.6 | 0.00 | 0.00 | 0.00 | 79 | 1011.1 |
| 20260508031625 | 49 | 127 | 1.7 | 3.5 | 0.00 | 0.00 | 0.00 | 79 | 1011.2 |
| 20260508031121 | 49 | 171 | 0.9 | 4.3 | 0.00 | 0.00 | 0.00 | 79 | 1011.1 |
| 20260508030617 | 49 | 195 | 1.7 | 2.6 | 0.00 | 0.00 | 0.00 | 79 | 1011.4 |
| 20260508030115 | 49 | 208 | 1.7 | 2.6 | 0.00 | 0.00 | 0.00 | 79 | 1011.4 |
| 20260508025611 | 50 | 154 | 0.0 | 4.3 | 0.00 | 0.00 | 0.00 | 80 | 1011.5 |
| 20260508025109 | 49 | 169 | 0.9 | 2.6 | 0.00 | 0.00 | 0.00 | 80 | 1011.3 |
| 20260508024604 | 49 | 164 | 0.9 | 2.6 | 0.00 | 0.00 | 0.00 | 80 | 1011.6 |
| 20260508024102 | 49 | 158 | 0.9 | 1.7 | 0.00 | 0.00 | 0.00 | 78 | 1011.4 |
| 20260508023558 | 49 | 155 | 0.9 | 1.7 | 0.00 | 0.00 | 0.00 | 81 | 1011.5 |
| 20260508023055 | 50 | 205 | 1.7 | 3.5 | 0.00 | 0.00 | 0.00 | 80 | 1011.5 |
| 20260508022551 | 49 | 139 | 0.0 | 2.6 | 0.00 | 0.00 | 0.00 | 82 | 1011.2 |
| 20260508022049 | 50 | 182 | 0.9 | 2.6 | 0.00 | 0.00 | 0.00 | 82 | 1011.0 |
| 20260508021544 | 49 | 124 | 1.7 | 2.6 | 0.00 | 0.00 | 0.00 | 78 | 1011.3 |
| 20260508021040 | 50 | 111 | 0.9 | 0.9 | 0.00 | 0.00 | 0.00 | 81 | 1011.5 |
| 20260508020538 | 50 | 131 | 0.0 | 1.7 | 0.00 | 0.00 | 0.00 | 76 | 1011.5 |
| 20260508020036 | 50 | 139 | 0.9 | 2.6 | 0.00 | 0.00 | 0.00 | 77 | 1011.6 |
| 20260508015533 | 50 | 130 | 1.7 | 2.6 | 0.00 | 0.00 | 0.00 | 78 | 1011.1 |
| 20260508015030 | 50 | 140 | 0.0 | 2.6 | 0.00 | 0.00 | 0.00 | 77 | 1011.2 |
| 20260508014526 | 50 | 133 | 1.7 | 2.6 | 0.00 | 0.00 | 0.00 | 76 | 1011.1 |
| 20260508014022 | 50 | 135 | 0.0 | 1.7 | 0.00 | 0.00 | 0.00 | 77 | 1011.1 |
| 20260508013518 | 50 | 118 | 0.0 | 0.9 | 0.00 | 0.00 | 0.00 | 79 | 1011.2 |
| 20260508013016 | 51 | 232 | 0.0 | 2.6 | 0.00 | 0.00 | 0.00 | 77 | 1011.4 |
| 20260508012513 | 51 | 199 | 1.7 | 2.6 | 0.00 | 0.00 | 0.00 | 72 | 1010.9 |
| 20260508012010 | 51 | 162 | 1.7 | 2.6 | 0.00 | 0.00 | 0.00 | 73 | 1011.0 |
| 20260508011509 | 51 | 189 | 2.6 | 3.5 | 0.00 | 0.00 | 0.00 | 72 | 1011.2 |
| 20260508011006 | 51 | 174 | 0.9 | 2.6 | 0.00 | 0.00 | 0.00 | 71 | 1011.3 |
| 20260508010502 | 51 | 180 | 1.7 | 4.3 | 0.00 | 0.00 | 0.00 | 70 | 1011.1 |
| 20260508005959 | 51 | 193 | 1.7 | 6.1 | 0.00 | 0.00 | 0.00 | 70 | 1011.1 |
| 20260508005450 | 51 | 186 | 1.7 | 3.5 | 0.00 | 0.00 | 0.00 | 73 | 1011.3 |
| 20260508004947 | 51 | 229 | 1.7 | 2.6 | 0.00 | 0.00 | 0.00 | 74 | 1011.6 |
| 20260508004443 | 52 | 237 | 2.6 | 5.2 | 0.00 | 0.00 | 0.00 | 68 | 1011.4 |
| 20260508003940 | 52 | 279 | 0.9 | 5.2 | 0.00 | 0.00 | 0.00 | 70 | 1011.4 |
| 20260508003436 | 52 | 197 | 1.7 | 4.3 | 0.00 | 0.00 | 0.00 | 69 | 1011.0 |
| 20260508002934 | 52 | 257 | 3.5 | 5.2 | 0.00 | 0.00 | 0.00 | 67 | 1011.3 |
| 20260508002430 | 52 | 328 | 2.6 | 6.1 | 0.00 | 0.00 | 0.00 | 65 | 1011.6 |
| 20260508001926 | 52 | 263 | 3.5 | 6.1 | 0.00 | 0.00 | 0.00 | 66 | 1011.4 |
| 20260508001423 | 53 | 307 | 5.2 | 11.3 | 0.00 | 0.00 | 0.00 | 63 | 1011.4 |
| 20260508000920 | 53 | 289 | 0.9 | 9.6 | 0.00 | 0.00 | 0.00 | 66 | 1011.5 |
| 20260508000415 | 53 | 335 | 2.6 | 14.8 | 0.00 | 0.00 | 0.00 | 64 | 1011.3 |
| 20260507235913 | 53 | 262 | 4.3 | 12.2 | 0.00 | 0.00 | 0.00 | 61 | 1011.3 |
| 20260507235410 | 53 | 319 | 8.7 | 10.4 | 0.00 | 0.00 | 0.00 | 62 | 1011.3 |
| 20260507234907 | 53 | 302 | 2.6 | 7.0 | 0.00 | 0.00 | 0.00 | 63 | 1011.3 |
| 20260507234403 | 53 | 223 | 3.5 | 12.2 | 0.00 | 0.00 | 0.00 | 62 | 1011.3 |
| 20260507233900 | 53 | 337 | 4.3 | 8.7 | 0.00 | 0.00 | 0.00 | 58 | 1011.5 |
| 20260507233357 | 54 | 305 | 7.0 | 19.1 | 0.00 | 0.00 | 0.00 | 57 | 1011.2 |
| 20260507232855 | 55 | 317 | 11.3 | 18.2 | 0.00 | 0.00 | 0.00 | 52 | 1011.2 |
| 20260507232351 | 54 | 314 | 10.4 | 15.6 | 0.00 | 0.00 | 0.00 | 55 | 1011.3 |
| 20260507231849 | 55 | 292 | 13.0 | 16.5 | 0.00 | 0.00 | 0.00 | 51 | 1011.3 |